• In Uzbekistan
  • List of Countries
  • For 7 days
  • Water Temperature
  • Satellite Maps
  • Weather Map
  • Weather Widgets
  • user-avatar
    Login

    Hourly Weather Vanadzor

    Today, 24 May, Friday

    Time Temperature Precipitation Wind Pressure Humidity
    00:00 +10°C° 0.1 mm 2 mps 635 mmHg 86%
    01:00 +10°C° 0.1 mm 2 mps 635 mmHg 87%
    02:00 +10°C° 0.1 mm 2 mps 635 mmHg 88%
    03:00 +10°C° 0 mm 2 mps 634 mmHg 88%
    04:00 +10°C° 0 mm 2 mps 634 mmHg 88%
    05:00 +12°C° 0 mm 2 mps 635 mmHg 88%
    06:00 +12°C° 0 mm 2 mps 635 mmHg 88%
    07:00 +13°C° 0 mm 3 mps 635 mmHg 79%
    08:00 +17°C° 0 mm 3 mps 636 mmHg 71%
    09:00 +19°C° 0 mm 3 mps 636 mmHg 62%
    10:00 +20°C° 0.2 mm 4 mps 636 mmHg 61%
    11:00 +20°C° 0.2 mm 4 mps 636 mmHg 60%
    12:00 +21°C° 0.2 mm 5 mps 636 mmHg 59%
    13:00 +21°C° 1 mm 4 mps 636 mmHg 60%
    14:00 +21°C° 1 mm 4 mps 636 mmHg 61%
    15:00 +21°C° 1 mm 4 mps 636 mmHg 62%
    16:00 +20°C° 1.2 mm 3 mps 636 mmHg 68%
    17:00 +19°C° 1.2 mm 2 mps 635 mmHg 74%
    18:00 +19°C° 1.2 mm 1 mps 635 mmHg 80%
    19:00 +18°C° 0.8 mm 1 mps 635 mmHg 82%
    20:00 +15°C° 0.8 mm 1 mps 635 mmHg 84%
    21:00 +14°C° 0.8 mm 2 mps 635 mmHg 85%
    22:00 +14°C° 0.1 mm 2 mps 636 mmHg 83%
    23:00 +14°C° 0.1 mm 1 mps 636 mmHg 81%

    Tomorrow, 25 May, Saturday

    Time Temperature Precipitation Wind Pressure Humidity
    00:00 +14°C° 0.1 mm 1 mps 636 mmHg 79%
    01:00 +13°C° 0 mm 1 mps 636 mmHg 79%
    02:00 +12°C° 0 mm 1 mps 636 mmHg 79%
    03:00 +12°C° 0 mm 1 mps 636 mmHg 78%
    04:00 +12°C° 0 mm 1 mps 636 mmHg 77%
    05:00 +13°C° 0 mm 1 mps 636 mmHg 76%
    06:00 +14°C° 0 mm 2 mps 636 mmHg 75%
    07:00 +16°C° 0 mm 2 mps 637 mmHg 67%
    08:00 +19°C° 0 mm 2 mps 637 mmHg 59%
    09:00 +21°C° 0 mm 2 mps 638 mmHg 51%
    10:00 +22°C° 0 mm 3 mps 638 mmHg 47%
    11:00 +25°C° 0 mm 3 mps 638 mmHg 44%
    12:00 +26°C° 0 mm 4 mps 638 mmHg 40%
    13:00 +26°C° 0 mm 4 mps 638 mmHg 42%
    14:00 +25°C° 0 mm 3 mps 638 mmHg 45%
    15:00 +25°C° 0 mm 3 mps 637 mmHg 47%
    16:00 +24°C° 0.5 mm 3 mps 637 mmHg 57%
    17:00 +21°C° 0.5 mm 3 mps 636 mmHg 67%
    18:00 +19°C° 0.5 mm 2 mps 635 mmHg 77%
    19:00 +17°C° 0.2 mm 2 mps 635 mmHg 77%
    20:00 +16°C° 0.2 mm 2 mps 635 mmHg 78%
    21:00 +14°C° 0.2 mm 2 mps 635 mmHg 78%
    22:00 +13°C° 0.2 mm 1 mps 635 mmHg 81%
    23:00 +13°C° 0.2 mm 1 mps 635 mmHg 83%

    Day after tomorrow, 26 May, Sunday

    Time Temperature Precipitation Wind Pressure Humidity
    00:00 +11°C° 0.2 mm 0 mps 635 mmHg 85%
    01:00 +12°C° 0 mm 1 mps 634 mmHg 85%
    02:00 +11°C° 0 mm 1 mps 634 mmHg 84%
    03:00 +11°C° 0 mm 1 mps 634 mmHg 83%
    04:00 +12°C° 0 mm 1 mps 634 mmHg 82%
    05:00 +13°C° 0 mm 1 mps 635 mmHg 80%
    06:00 +14°C° 0 mm 1 mps 635 mmHg 78%
    07:00 +16°C° 0 mm 1 mps 635 mmHg 70%
    08:00 +19°C° 0 mm 1 mps 636 mmHg 62%
    09:00 +21°C° 0 mm 1 mps 637 mmHg 54%
    10:00 +21°C° 0 mm 2 mps 637 mmHg 49%
    11:00 +22°C° 0 mm 3 mps 637 mmHg 45%
    12:00 +24°C° 0 mm 3 mps 637 mmHg 40%
    13:00 +24°C° 0 mm 3 mps 637 mmHg 40%
    14:00 +25°C° 0 mm 3 mps 636 mmHg 40%
    15:00 +25°C° 0 mm 3 mps 636 mmHg 40%
    16:00 +22°C° 0.6 mm 3 mps 636 mmHg 51%
    17:00 +21°C° 0.6 mm 2 mps 635 mmHg 62%
    18:00 +19°C° 0.6 mm 2 mps 635 mmHg 72%
    19:00 +17°C° 1.1 mm 2 mps 635 mmHg 79%
    20:00 +14°C° 1.1 mm 2 mps 635 mmHg 85%
    21:00 +12°C° 1.1 mm 1 mps 635 mmHg 91%
    22:00 +12°C° 0.6 mm 1 mps 635 mmHg 92%
    23:00 +11°C° 0.6 mm 1 mps 635 mmHg 92%

    27 May, Monday

    Time Temperature Precipitation Wind Pressure Humidity
    00:00 +11°C° 0.6 mm 1 mps 635 mmHg 93%
    01:00 +11°C° 0.2 mm 1 mps 635 mmHg 92%
    02:00 +10°C° 0.2 mm 1 mps 635 mmHg 91%
    03:00 +10°C° 0.2 mm 1 mps 635 mmHg 91%
    04:00 +11°C° 0 mm 1 mps 636 mmHg 88%
    05:00 +11°C° 0 mm 0 mps 636 mmHg 86%
    06:00 +11°C° 0 mm 0 mps 637 mmHg 84%
    07:00 +14°C° 0 mm 1 mps 637 mmHg 77%
    08:00 +16°C° 0 mm 1 mps 638 mmHg 70%
    09:00 +19°C° 0 mm 1 mps 639 mmHg 62%
    10:00 +20°C° 0.4 mm 1 mps 639 mmHg 60%
    11:00 +20°C° 0.4 mm 1 mps 639 mmHg 57%
    12:00 +20°C° 0.4 mm 2 mps 639 mmHg 54%
    13:00 +20°C° 0.9 mm 2 mps 638 mmHg 54%
    14:00 +20°C° 0.9 mm 2 mps 638 mmHg 54%
    15:00 +20°C° 0.9 mm 2 mps 638 mmHg 54%
    16:00 +19°C° 0.7 mm 2 mps 638 mmHg 61%
    17:00 +19°C° 0.7 mm 2 mps 638 mmHg 67%
    18:00 +18°C° 0.7 mm 2 mps 638 mmHg 73%
    19:00 +16°C° 0.1 mm 2 mps 638 mmHg 78%
    20:00 +14°C° 0.1 mm 1 mps 638 mmHg 83%
    21:00 +12°C° 0.1 mm 1 mps 638 mmHg 88%
    22:00 +11°C° 0 mm 1 mps 638 mmHg 88%
    23:00 +11°C° 0 mm 1 mps 638 mmHg 88%

    28 May, Tuesday

    Time Temperature Precipitation Wind Pressure Humidity
    00:00 +10°C° 0 mm 1 mps 638 mmHg 88%
    01:00 +10°C° 0 mm 1 mps 638 mmHg 89%
    02:00 +10°C° 0 mm 1 mps 638 mmHg 89%
    03:00 +9°C° 0 mm 1 mps 638 mmHg 90%
    04:00 +10°C° 0 mm 1 mps 638 mmHg 89%
    05:00 +11°C° 0 mm 1 mps 638 mmHg 88%
    06:00 +12°C° 0 mm 1 mps 639 mmHg 87%
    07:00 +13°C° 0 mm 1 mps 639 mmHg 82%
    08:00 +15°C° 0 mm 2 mps 640 mmHg 77%
    09:00 +17°C° 0 mm 2 mps 640 mmHg 71%
    10:00 +17°C° 0.1 mm 2 mps 640 mmHg 70%
    11:00 +18°C° 0.1 mm 2 mps 640 mmHg 69%
    12:00 +19°C° 0.1 mm 2 mps 640 mmHg 68%
    13:00 +19°C° 0.2 mm 2 mps 640 mmHg 68%
    14:00 +19°C° 0.2 mm 2 mps 639 mmHg 67%
    15:00 +20°C° 0.2 mm 2 mps 639 mmHg 67%
    16:00 +19°C° 0.2 mm 2 mps 639 mmHg 72%
    17:00 +18°C° 0.2 mm 2 mps 639 mmHg 76%
    18:00 +18°C° 0.2 mm 2 mps 639 mmHg 80%
    19:00 +16°C° 0.1 mm 2 mps 639 mmHg 85%
    20:00 +14°C° 0.1 mm 1 mps 639 mmHg 89%
    21:00 +12°C° 0.1 mm 1 mps 639 mmHg 94%
    22:00 +12°C° 0 mm 1 mps 639 mmHg 94%
    23:00 +11°C° 0 mm 1 mps 639 mmHg 94%

    29 May, Wednesday

    Time Temperature Precipitation Wind Pressure Humidity
    00:00 +11°C° 0 mm 1 mps 639 mmHg 95%
    01:00 +11°C° 0 mm 1 mps 639 mmHg 95%
    02:00 +11°C° 0 mm 1 mps 639 mmHg 95%
    03:00 +9°C° 0 mm 0 mps 638 mmHg 95%
    04:00 +11°C° 0 mm 1 mps 639 mmHg 95%
    05:00 +12°C° 0 mm 1 mps 639 mmHg 94%
    06:00 +12°C° 0 mm 1 mps 639 mmHg 93%
    07:00 +14°C° 0 mm 1 mps 639 mmHg 84%
    08:00 +16°C° 0 mm 1 mps 640 mmHg 76%
    09:00 +17°C° 0 mm 2 mps 640 mmHg 67%
    10:00 +19°C° 0 mm 2 mps 640 mmHg 64%
    11:00 +20°C° 0 mm 2 mps 640 mmHg 62%
    12:00 +21°C° 0 mm 2 mps 640 mmHg 59%
    13:00 +21°C° 0 mm 2 mps 640 mmHg 60%
    14:00 +21°C° 0 mm 2 mps 639 mmHg 60%
    15:00 +22°C° 0 mm 3 mps 639 mmHg 61%
    16:00 +21°C° 0 mm 2 mps 639 mmHg 66%
    17:00 +20°C° 0 mm 2 mps 639 mmHg 72%
    18:00 +19°C° 0 mm 2 mps 638 mmHg 77%
    19:00 +17°C° 0.1 mm 2 mps 638 mmHg 83%
    20:00 +15°C° 0.1 mm 1 mps 638 mmHg 88%
    21:00 +13°C° 0.1 mm 1 mps 638 mmHg 93%
    22:00 +12°C° 0 mm 1 mps 637 mmHg 93%
    23:00 +12°C° 0 mm 1 mps 637 mmHg 93%
    Show more